Theta_e
288 281 276 278 280 281 280 278 278 282 284 281 281 282 285 288 285 285 285 284 286 288 291 292 292 292 292 291 291 292 291 291 289 288 287 286 286 287 287 288 289 290 290 291
283 278 283 286 285 282 281 278 276 281 283 281 279 280 284 285 284 284 285 284 286 287 289 291 291 290 291 290 290 290 291 290 290 288 287 286 286 286 286 287 288 289 290 291
282 283 287 285 282 281 279 277 277 277 280 279 277 276 279 282 284 285 285 285 286 288 287 288 289 289 288 288 289 290 290 290 289 289 288 287 286 285 285 285 286 288 290 290
281 285 284 282 280 280 277 280 280 279 272 269 276 269 276 278 280 282 283 283 284 286 287 288 288 287 288 289 289 289 290 290 290 289 287 285 284 282 283 284 286 287 289 288
279 281 281 279 280 281 279 281 278 277 268 268 271 266 274 278 278 281 282 283 284 285 286 287 287 289 289 289 288 288 289 289 289 288 287 285 283 283 283 284 285 286 286 287
281 284 281 281 282 281 282 278 276 273 265 263 264 267 273 277 277 279 281 282 284 285 285 286 287 288 287 286 286 286 288 288 288 287 286 284 282 281 282 283 283 284 284 284
278 279 282 283 279 281 278 269 264 266 265 266 261 267 275 279 280 281 282 282 283 284 283 284 285 285 285 285 285 285 285 286 287 285 283 282 282 283 283 283 282 282 283 283
267 270 275 282 279 277 276 271 267 261 264 267 262 266 276 279 281 281 283 283 282 282 283 284 285 284 284 285 284 284 284 284 284 282 281 282 283 282 282 282 282 282 283 285
269 272 280 281 281 278 275 266 274 263 257 261 267 272 279 279 276 278 280 280 281 282 283 284 284 283 284 283 283 283 283 283 282 281 281 282 282 282 281 282 282 283 284 287
276 268 274 279 280 278 274 276 267 264 261 258 264 261 274 274 274 275 278 278 280 281 282 283 283 283 283 283 282 282 282 282 281 280 281 282 282 281 281 282 282 283 284 286
275 270 271 277 269 269 269 267 267 268 269 263 260 268 273 273 274 274 277 278 279 279 280 281 281 282 282 282 281 281 281 280 280 281 282 281 281 281 281 281 282 284 285 286
279 275 265 272 277 278 275 270 273 267 264 265 266 268 274 276 269 266 273 278 276 275 279 277 280 281 281 281 280 280 280 279 279 280 281 281 281 281 280 282 283 284 284 285
279 269 262 269 272 275 272 276 275 269 272 266 264 272 271 267 269 272 271 272 276 277 276 277 278 279 280 280 279 279 279 278 280 280 280 280 280 279 279 281 283 284 284 284
284 276 269 268 267 268 268 273 275 272 262 267 272 275 275 278 275 276 272 273 273 274 277 279 275 277 277 277 276 276 277 278 279 280 279 279 278 279 281 281 283 283 284 284
279 270 273 274 272 269 273 271 271 270 273 269 276 276 276 279 281 283 282 274 274 278 279 280 280 281 276 273 273 274 274 274 274 275 272 275 275 277 281 280 282 283 284 284
280 273 269 273 276 277 275 277 276 275 276 276 276 275 283 284 285 279 275 274 276 280 283 280 277 274 275 275 275 274 273 272 271 271 272 268 269 280 278 280 282 283 283 283
277 275 269 270 270 268 269 273 276 277 277 277 273 278 282 281 281 280 281 279 282 284 284 279 278 276 276 276 274 273 273 266 268 270 268 267 271 280 279 281 281 282 282 282
278 277 276 271 266 266 273 276 275 274 277 277 279 280 282 282 284 274 277 282 283 283 281 279 278 275 274 267 267 265 266 267 267 267 268 264 271 279 280 281 281 281 281 281
280 277 273 270 268 272 275 278 277 276 276 279 278 280 281 283 280 281 281 283 284 286 284 282 279 275 270 269 266 266 262 264 266 268 268 268 271 279 280 280 280 281 280 280
275 279 274 262 268 264 272 275 278 279 273 279 280 280 280 279 276 282 283 282 283 284 283 280 279 278 277 277 273 270 266 265 268 270 270 269 270 278 278 280 280 280 280 279
263 266 270 270 268 271 277 279 278 270 273 280 281 280 280 279 280 282 283 283 281 282 281 281 280 280 279 278 275 274 272 269 273 273 272 271 270 273 274 277 280 280 279 280
267 262 260 261 266 264 279 278 274 277 279 280 281 281 281 281 282 283 284 282 281 280 280 281 279 279 279 278 276 275 273 275 273 273 274 274 274 275 276 276 279 270 270 270
264 269 265 268 269 277 278 277 279 279 279 281 280 281 282 282 281 282 283 284 287 286 284 279 280 279 277 276 275 275 276 274 273 272 273 273 273 275 276 275 274 272 271 270
270 273 270 270 272 274 276 278 278 279 278 280 281 282 283 280 280 281 282 283 285 288 287 282 274 277 278 275 275 276 271 272 271 271 272 272 273 272 272 276 275 274 271 270
272 270 270 270 273 274 276 277 278 278 279 279 279 280 280 279 279 280 282 283 284 287 288 282 280 279 280 277 275 274 272 271 272 271 271 272 273 273 273 274 274 275 273 275
274 271 268 268 274 274 275 278 279 277 277 278 278 278 279 278 278 280 281 284 284 284 286 281 279 279 280 278 277 275 271 272 272 272 271 272 273 272 272 273 272 280 280 281
Wind_Speed
4 8 2 1 1 2 2 1 2 4 3 3 5 11 17 16 8 11 12 8 9 7 3 7 7 6 8 7 7 7 7 7 3 1 1 1 2 2 2 3 5 6 5 5
7 3 2 1 4 3 3 2 4 5 1 3 6 16 17 8 5 6 9 8 7 7 5 6 7 6 6 7 7 7 7 6 5 3 3 2 2 3 3 3 4 5 5 5
5 1 3 2 5 4 2 2 2 4 8 2 7 8 4 4 1 4 6 3 6 10 9 6 7 6 6 7 8 7 7 7 6 6 2 1 1 1 2 2 3 4 5 5
4 3 3 4 3 2 1 2 2 3 6 3 5 7 8 3 2 2 2 3 6 6 4 5 7 6 7 8 6 7 7 7 6 7 4 5 3 3 3 3 3 4 5 5
4 2 3 4 1 2 2 3 2 3 4 4 6 5 11 3 4 6 6 5 6 7 7 8 8 7 7 5 6 6 6 6 6 6 5 4 3 3 3 3 5 5 4 5
2 1 3 1 2 2 3 4 6 4 4 4 4 4 9 4 4 3 4 6 7 7 7 6 6 6 5 4 2 3 3 5 5 5 5 4 5 4 3 3 4 4 4 4
5 2 3 3 1 4 6 7 5 7 5 6 3 1 13 7 5 6 9 9 8 7 7 6 7 7 5 5 4 4 4 5 4 4 3 3 4 4 5 5 4 5 3 3
4 8 1 4 1 3 2 6 6 6 3 5 3 7 10 6 6 5 8 8 7 8 8 9 9 6 7 7 6 5 5 4 4 4 4 3 3 3 3 4 4 4 4 5
4 5 1 2 2 3 3 1 2 7 1 4 4 9 12 3 6 4 6 7 10 9 9 10 8 7 7 7 8 7 6 5 5 5 3 4 4 4 4 6 5 4 6 7
4 4 2 3 2 3 5 1 5 4 1 6 6 7 9 6 8 6 7 11 10 9 9 8 7 8 6 6 6 6 6 7 5 5 4 3 3 4 5 5 6 6 5 7
5 5 6 3 4 8 2 2 3 3 5 6 3 9 9 7 9 12 13 11 12 12 10 8 7 7 7 5 6 7 7 7 5 5 3 3 4 4 5 4 5 5 7 8
2 4 3 11 1 3 4 6 5 6 7 4 2 12 5 10 6 6 11 12 7 7 9 7 7 8 7 7 7 7 7 6 6 5 4 4 3 4 4 5 6 6 7 8
4 2 4 10 6 5 3 5 5 2 2 7 3 11 3 6 7 7 10 8 11 10 9 9 6 8 8 7 7 7 7 7 6 5 5 4 3 3 5 5 6 6 7 8
4 4 8 9 8 5 3 5 7 6 3 4 18 23 10 14 10 10 9 10 9 9 11 9 7 9 9 7 7 6 7 7 6 6 5 4 3 4 4 5 5 6 7 8
4 6 6 10 8 5 11 11 7 11 11 11 34 28 10 19 19 23 12 6 8 12 13 12 11 11 9 6 6 6 6 6 4 5 4 5 3 4 4 5 5 6 6 7
3 8 2 11 10 16 21 21 18 25 25 26 29 41 24 24 19 15 11 8 11 14 17 12 11 8 9 8 8 7 7 7 5 6 6 4 3 3 4 5 5 5 5 6
4 2 1 18 3 6 19 21 25 22 14 18 22 32 24 25 21 18 14 11 18 21 15 10 11 10 8 9 8 10 9 6 7 6 5 5 5 5 4 5 4 4 5 4
12 8 4 13 2 18 9 2 4 11 11 14 24 24 26 25 24 3 9 19 18 15 14 11 9 7 8 5 5 4 5 7 7 7 6 5 5 5 5 5 3 4 3 4
15 12 9 10 11 19 23 16 19 19 27 14 15 20 18 19 9 12 17 19 20 19 16 12 8 6 5 6 4 5 4 5 6 8 8 7 6 8 6 6 4 4 3 3
4 12 8 1 9 12 2 3 3 8 27 5 13 16 15 4 9 18 8 6 12 15 11 9 8 6 7 6 7 7 6 6 9 8 9 7 7 10 7 6 4 5 3 4
3 2 14 13 14 17 11 17 6 18 14 20 18 17 18 17 6 14 13 20 8 11 9 7 7 8 7 7 7 7 6 11 10 6 7 6 7 8 6 4 3 5 4 4
3 3 3 4 14 26 9 15 7 12 30 23 12 13 15 16 15 20 18 13 11 12 5 6 7 6 6 7 7 7 9 8 7 7 7 7 8 7 5 6 5 3 3 2
3 8 6 7 11 21 26 26 30 28 21 20 20 23 19 19 14 15 15 18 17 12 7 3 4 4 4 6 8 8 8 7 6 7 7 7 6 7 6 5 5 2 3 2
3 6 10 18 18 27 25 30 27 26 26 25 23 20 14 13 15 18 14 14 17 15 15 7 1 7 8 7 7 12 4 6 6 7 7 6 7 6 5 4 3 4 4 3
8 3 14 20 28 20 27 20 21 24 24 23 25 23 21 21 19 17 18 16 11 17 13 7 7 9 11 5 8 8 7 7 6 6 6 6 6 7 5 5 5 5 4 5
13 11 6 17 27 23 30 31 32 27 30 30 27 27 22 16 20 20 17 17 13 14 18 11 10 9 12 8 8 7 7 9 8 8 6 7 6 6 5 5 2 10 9 11
Wind_Direction
11 62 52 334 31 84 111 135 260 279 40 339 254 274 274 286 251 252 245 234 218 208 170 153 155 135 125 136 160 178 175 196 154 151 179 226 236 271 284 295 293 306 301 296
25 79 336 1 30 66 66 80 287 288 118 359 297 283 286 284 268 258 245 227 176 143 132 126 134 138 154 160 178 186 200 196 193 161 188 176 184 237 251 264 290 290 292 301
112 148 358 59 33 47 46 157 325 257 324 258 317 294 311 289 76 16 23 72 126 153 148 143 149 157 156 183 201 209 214 210 203 193 141 124 9 328 313 284 283 275 292 289
78 358 59 43 85 75 321 7 32 16 38 272 26 279 302 310 231 149 98 113 145 155 146 153 164 178 196 220 223 236 237 222 207 180 172 184 195 226 230 240 243 274 280 284
258 29 49 56 38 54 217 25 63 99 89 43 339 70 271 305 254 226 211 204 188 178 167 176 186 196 212 226 240 252 251 215 195 180 188 191 222 227 247 268 284 283 279 277
87 22 55 61 52 40 66 53 31 59 93 21 263 121 284 232 222 201 200 208 198 185 182 190 204 205 211 191 220 252 232 222 202 192 188 203 235 267 280 281 283 271 270 270
344 348 347 36 56 17 62 50 335 350 6 227 319 28 245 266 244 208 191 199 205 198 181 186 201 215 241 264 283 279 253 252 203 191 213 246 260 272 277 281 281 294 283 283
111 331 99 344 66 192 75 141 156 227 258 273 356 245 253 237 265 278 204 182 183 194 198 212 224 240 248 250 256 255 251 226 200 208 244 262 267 265 277 275 276 270 261 275
111 282 143 41 12 93 257 47 171 100 73 47 252 292 295 265 302 320 197 178 205 207 211 227 247 247 247 242 246 237 236 225 214 224 238 253 268 282 286 289 281 270 272 285
187 344 271 290 68 26 153 152 39 2 308 283 283 277 242 291 252 257 238 216 218 220 224 234 256 256 247 236 236 238 226 223 224 222 227 251 291 304 296 293 286 278 282 291
128 103 288 33 196 186 35 320 35 128 170 202 266 259 218 224 229 221 226 218 213 214 217 226 253 267 255 232 222 227 217 215 216 214 217 252 284 294 297 289 286 288 300 294
209 144 232 226 260 192 170 197 157 143 263 237 188 264 223 233 231 208 246 232 237 233 228 236 257 264 251 229 221 217 213 210 208 200 193 230 268 294 294 287 295 295 294 292
173 304 356 335 4 357 223 209 190 146 94 213 172 256 280 275 285 251 262 263 246 245 247 255 268 256 238 232 227 219 211 210 199 186 199 217 251 283 288 284 291 300 294 293
167 193 184 217 206 147 216 231 228 168 153 236 230 261 308 295 289 287 254 253 261 248 251 258 254 246 242 216 219 217 219 203 194 192 202 221 233 266 283 286 288 298 295 298
161 225 233 249 246 215 246 233 211 212 217 227 275 268 237 256 259 261 263 242 262 262 256 253 255 252 232 217 222 220 217 197 178 182 191 220 224 259 280 284 285 291 293 293
208 264 117 272 251 257 260 253 238 238 248 256 260 271 265 275 268 275 262 238 246 251 255 250 257 250 238 213 211 206 210 202 174 190 214 202 217 232 275 276 282 289 296 302
209 213 79 270 265 311 274 235 237 249 238 235 256 260 288 278 267 257 269 247 247 254 251 240 237 232 237 216 194 205 201 159 184 195 208 204 210 229 240 257 278 282 293 297
239 238 228 282 24 264 255 200 195 238 244 244 255 264 265 269 272 265 233 247 256 246 247 234 225 230 239 224 207 162 159 177 183 197 208 203 217 215 238 252 257 271 280 294
217 231 255 246 240 277 279 281 283 278 285 236 248 258 268 275 290 271 243 251 252 252 242 228 209 201 203 190 183 156 158 166 178 206 209 204 207 213 230 240 247 267 291 308
163 214 221 164 255 268 73 22 86 302 286 235 329 303 308 339 301 301 303 286 257 253 238 199 197 197 195 181 156 164 185 188 211 207 210 196 193 212 220 227 232 265 273 281
30 301 225 246 259 268 302 316 321 263 300 338 321 315 315 295 291 297 319 320 288 270 209 162 174 195 201 158 160 193 176 219 221 190 193 194 191 208 199 214 210 258 263 267
182 203 234 281 263 271 305 325 279 313 306 297 297 305 310 317 325 327 330 332 336 342 333 176 179 205 197 170 172 209 218 218 193 187 192 192 189 205 194 212 217 231 228 259
270 199 224 229 256 301 292 282 290 298 292 289 281 281 269 277 292 307 313 311 319 308 284 251 289 238 218 195 182 208 238 175 188 182 196 187 177 199 187 192 191 197 203 188
257 228 269 285 281 272 291 285 286 284 280 281 278 279 264 258 272 280 273 283 294 277 296 299 160 261 261 206 198 222 172 168 176 198 189 180 180 193 191 188 185 181 191 191
246 322 273 277 278 288 277 281 282 289 283 279 279 270 262 271 271 275 273 260 244 263 260 238 219 239 252 202 218 211 187 165 193 203 178 189 190 184 195 194 191 191 203 186
263 252 240 270 283 286 282 292 293 292 287 281 275 273 262 256 273 266 265 259 239 240 263 249 224 233 241 226 230 200 178 183 186 197 186 191 184 181 183 184 197 218 208 209